Wetterdaten: Samstag, 04.07.2015
Datum Zeit Auen-Temp. Temp gefhlt Luftfeuchte Luftdruck Regen Wind Richtung Richtung Taupunkt Windben
04.07.2015 00:00 17,9 C 17,7 C 75 % 1027,1 hPa 0,0 mm 1,6 km/h (1 Bft) O-SO 112 13,4 C 0,0 km/h (0 Bft)
04.07.2015 00:05 17,8 C 17,7 C 75 % 1027,1 hPa 0,0 mm 1,6 km/h (1 Bft) O 90 13,3 C 0,0 km/h (0 Bft)
04.07.2015 00:10 17,5 C 17,5 C 75 % 1027,1 hPa 0,0 mm 0,5 km/h (0 Bft) W 270 13,0 C 5,7 km/h (1 Bft)
04.07.2015 00:15 18,1 C 17,9 C 73 % 1026,9 hPa 0,0 mm 0,5 km/h (0 Bft) W 270 13,2 C 0,0 km/h (0 Bft)
04.07.2015 00:20 17,6 C 17,8 C 73 % 1026,9 hPa 0,0 mm 0,3 km/h (0 Bft) O-NO 67 12,7 C 0,0 km/h (0 Bft)
04.07.2015 00:25 17,3 C 17,6 C 73 % 1026,9 hPa 0,0 mm 0,0 km/h (0 Bft) O-NO 67 12,4 C 0,0 km/h (0 Bft)
04.07.2015 00:30 17,2 C 17,2 C 73 % 1026,9 hPa 0,0 mm 0,0 km/h (0 Bft) O-NO 67 12,3 C 0,0 km/h (0 Bft)
04.07.2015 00:35 17,3 C 17,3 C 74 % 1026,8 hPa 0,0 mm 0,0 km/h (0 Bft) N 360 12,6 C 0,0 km/h (0 Bft)
04.07.2015 00:40 17,2 C 17,2 C 74 % 1026,8 hPa 0,0 mm 0,3 km/h (0 Bft) W 270 12,5 C 0,0 km/h (0 Bft)
04.07.2015 00:45 17,4 C 17,3 C 74 % 1026,8 hPa 0,0 mm 0,3 km/h (0 Bft) O-NO 67 12,7 C 0,0 km/h (0 Bft)
04.07.2015 00:50 17,5 C 17,3 C 73 % 1026,8 hPa 0,0 mm 0,0 km/h (0 Bft) NO 45 12,6 C 0,0 km/h (0 Bft)
04.07.2015 00:55 17,2 C 17,1 C 73 % 1026,7 hPa 0,0 mm 0,0 km/h (0 Bft) N-NO 22 12,3 C 0,0 km/h (0 Bft)
04.07.2015 01:00 17,1 C 16,9 C 74 % 1026,7 hPa 0,0 mm 0,0 km/h (0 Bft) O 90 12,4 C 0,0 km/h (0 Bft)
04.07.2015 01:05 17,1 C 16,9 C 74 % 1026,7 hPa 0,0 mm 0,0 km/h (0 Bft) SO 135 12,4 C 0,0 km/h (0 Bft)
04.07.2015 01:10 16,8 C 16,7 C 74 % 1026,7 hPa 0,0 mm 0,0 km/h (0 Bft) N 360 12,1 C 0,0 km/h (0 Bft)
04.07.2015 01:13 16,7 C 16,6 C 74 % 1026,7 hPa 0,0 mm 0,0 km/h (0 Bft) S 180 12,0 C 0,0 km/h (0 Bft)
04.07.2015 01:16 16,7 C 16,6 C 74 % 1026,7 hPa 0,0 mm 0,0 km/h (0 Bft) S 180 12,0 C 0,0 km/h (0 Bft)
04.07.2015 01:20 16,7 C 16,5 C 75 % 1026,7 hPa 0,0 mm 0,0 km/h (0 Bft) W-NW 292 12,2 C 0,0 km/h (0 Bft)
04.07.2015 01:25 16,6 C 16,5 C 75 % 1026,7 hPa 0,0 mm 0,0 km/h (0 Bft) N-NW 337 12,1 C 0,0 km/h (0 Bft)
04.07.2015 01:30 16,5 C 16,3 C 76 % 1026,7 hPa 0,0 mm 0,0 km/h (0 Bft) NO 45 12,3 C 0,0 km/h (0 Bft)
04.07.2015 01:35 16,2 C 16,1 C 76 % 1026,8 hPa 0,0 mm 0,0 km/h (0 Bft) N-NO 22 12,0 C 0,0 km/h (0 Bft)
04.07.2015 01:40 16,1 C 16,0 C 76 % 1026,8 hPa 0,0 mm 0,0 km/h (0 Bft) N-NO 22 11,9 C 0,0 km/h (0 Bft)
04.07.2015 01:45 16,0 C 15,9 C 76 % 1026,8 hPa 0,0 mm 0,0 km/h (0 Bft) N-NO 22 11,8 C 0,0 km/h (0 Bft)
04.07.2015 01:50 15,7 C 15,6 C 77 % 1026,8 hPa 0,0 mm 0,0 km/h (0 Bft) N-NO 22 11,7 C 0,0 km/h (0 Bft)
04.07.2015 01:55 15,9 C 15,7 C 78 % 1026,5 hPa 0,0 mm 0,0 km/h (0 Bft) NO 45 12,1 C 0,0 km/h (0 Bft)
04.07.2015 02:00 15,8 C 15,6 C 79 % 1026,5 hPa 0,0 mm 0,0 km/h (0 Bft) NO 45 12,2 C 0,0 km/h (0 Bft)
04.07.2015 02:05 15,6 C 15,5 C 79 % 1026,5 hPa 0,0 mm 0,0 km/h (0 Bft) W 270 12,0 C 0,0 km/h (0 Bft)
04.07.2015 02:10 15,5 C 15,4 C 78 % 1026,5 hPa 0,0 mm 0,0 km/h (0 Bft) S-SO 157 11,7 C 0,0 km/h (0 Bft)
04.07.2015 02:15 15,5 C 15,4 C 78 % 1026,5 hPa 0,0 mm 0,0 km/h (0 Bft) W 270 11,7 C 0,0 km/h (0 Bft)
04.07.2015 02:20 15,7 C 15,5 C 78 % 1026,5 hPa 0,0 mm 0,0 km/h (0 Bft) O 90 11,9 C 0,0 km/h (0 Bft)
04.07.2015 02:25 16,2 C 16,0 C 76 % 1026,5 hPa 0,0 mm 0,0 km/h (0 Bft) O 90 12,0 C 0,0 km/h (0 Bft)
04.07.2015 02:30 16,1 C 15,9 C 78 % 1026,5 hPa 0,0 mm 0,0 km/h (0 Bft) O-NO 67 12,3 C 0,0 km/h (0 Bft)
04.07.2015 02:35 16,0 C 15,8 C 78 % 1026,4 hPa 0,0 mm 0,0 km/h (0 Bft) O-SO 112 12,2 C 0,0 km/h (0 Bft)
04.07.2015 02:40 15,9 C 15,7 C 78 % 1026,4 hPa 0,0 mm 0,0 km/h (0 Bft) O-NO 67 12,1 C 0,0 km/h (0 Bft)
04.07.2015 02:45 16,0 C 15,8 C 77 % 1026,4 hPa 0,0 mm 0,0 km/h (0 Bft) O-NO 67 12,0 C 0,0 km/h (0 Bft)
04.07.2015 02:50 15,5 C 15,4 C 77 % 1026,4 hPa 0,0 mm 0,0 km/h (0 Bft) O-NO 67 11,5 C 0,0 km/h (0 Bft)
04.07.2015 02:55 15,3 C 15,3 C 78 % 1026,2 hPa 0,0 mm 0,0 km/h (0 Bft) O-NO 67 11,5 C 0,0 km/h (0 Bft)
04.07.2015 03:00 15,7 C 15,5 C 79 % 1026,2 hPa 0,0 mm 0,0 km/h (0 Bft) O-NO 67 12,1 C 0,0 km/h (0 Bft)
04.07.2015 03:05 15,8 C 15,5 C 79 % 1026,2 hPa 0,0 mm 0,0 km/h (0 Bft) O-SO 112 12,2 C 0,0 km/h (0 Bft)
04.07.2015 03:10 15,7 C 15,5 C 79 % 1026,2 hPa 0,0 mm 0,0 km/h (0 Bft) NO 45 12,1 C 0,0 km/h (0 Bft)
04.07.2015 03:15 15,3 C 15,2 C 78 % 1026,1 hPa 0,0 mm 0,0 km/h (0 Bft) NO 45 11,5 C 0,0 km/h (0 Bft)
04.07.2015 03:20 15,2 C 15,1 C 79 % 1026,1 hPa 0,0 mm 0,0 km/h (0 Bft) O-NO 67 11,6 C 0,0 km/h (0 Bft)
04.07.2015 03:25 15,3 C 15,1 C 79 % 1026,1 hPa 0,0 mm 0,0 km/h (0 Bft) O 90 11,7 C 0,0 km/h (0 Bft)
04.07.2015 03:30 15,3 C 15,1 C 80 % 1026,1 hPa 0,0 mm 0,0 km/h (0 Bft) O-NO 67 11,9 C 0,0 km/h (0 Bft)
04.07.2015 03:35 15,2 C 15,1 C 77 % 1025,8 hPa 0,0 mm 0,0 km/h (0 Bft) SO 135 11,2 C 0,0 km/h (0 Bft)
04.07.2015 03:40 15,2 C 15,1 C 78 % 1025,8 hPa 0,0 mm 0,0 km/h (0 Bft) O 90 11,4 C 0,0 km/h (0 Bft)
04.07.2015 03:45 15,1 C 14,9 C 79 % 1025,8 hPa 0,0 mm 0,0 km/h (0 Bft) O 90 11,5 C 0,0 km/h (0 Bft)
04.07.2015 03:50 14,8 C 14,7 C 79 % 1025,8 hPa 0,0 mm 0,0 km/h (0 Bft) O-NO 67 11,2 C 0,0 km/h (0 Bft)
04.07.2015 03:55 14,7 C 14,5 C 79 % 1025,6 hPa 0,0 mm 0,0 km/h (0 Bft) O 90 11,1 C 0,0 km/h (0 Bft)
04.07.2015 04:00 14,8 C 14,6 C 80 % 1025,6 hPa 0,0 mm 0,0 km/h (0 Bft) O-NO 67 11,4 C 0,0 km/h (0 Bft)
04.07.2015 04:05 14,8 C 14,6 C 80 % 1025,6 hPa 0,0 mm 0,0 km/h (0 Bft) O-SO 112 11,4 C 0,0 km/h (0 Bft)
04.07.2015 04:10 14,6 C 14,5 C 81 % 1025,6 hPa 0,0 mm 0,0 km/h (0 Bft) O-NO 67 11,4 C 0,0 km/h (0 Bft)
04.07.2015 04:15 14,5 C 14,4 C 81 % 1025,7 hPa 0,0 mm 0,0 km/h (0 Bft) O-NO 67 11,3 C 0,0 km/h (0 Bft)
04.07.2015 04:20 14,7 C 14,5 C 82 % 1025,7 hPa 0,0 mm 0,3 km/h (0 Bft) SO 135 11,7 C 2,8 km/h (1 Bft)
04.07.2015 04:25 15,0 C 14,8 C 81 % 1025,7 hPa 0,0 mm 0,3 km/h (0 Bft) O-NO 67 11,8 C 0,0 km/h (0 Bft)
04.07.2015 04:30 14,9 C 14,7 C 81 % 1025,7 hPa 0,0 mm 0,0 km/h (0 Bft) O-SO 112 11,7 C 0,0 km/h (0 Bft)
04.07.2015 04:35 14,8 C 14,6 C 80 % 1025,5 hPa 0,0 mm 0,0 km/h (0 Bft) O-NO 67 11,4 C 0,0 km/h (0 Bft)
04.07.2015 04:40 14,5 C 14,4 C 80 % 1025,5 hPa 0,0 mm 0,0 km/h (0 Bft) O-NO 67 11,1 C 0,0 km/h (0 Bft)
04.07.2015 04:45 14,3 C 14,3 C 80 % 1025,5 hPa 0,0 mm 0,0 km/h (0 Bft) O-NO 67 10,9 C 0,0 km/h (0 Bft)
04.07.2015 04:50 14,5 C 14,3 C 81 % 1025,5 hPa 0,0 mm 0,0 km/h (0 Bft) O-SO 112 11,3 C 0,0 km/h (0 Bft)
04.07.2015 04:55 14,8 C 14,6 C 82 % 1025,6 hPa 0,0 mm 0,0 km/h (0 Bft) O-SO 112 11,8 C 0,0 km/h (0 Bft)
04.07.2015 05:00 14,8 C 14,6 C 81 % 1025,6 hPa 0,0 mm 0,0 km/h (0 Bft) O-SO 112 11,6 C 0,0 km/h (0 Bft)
04.07.2015 05:05 14,6 C 14,5 C 81 % 1025,6 hPa 0,0 mm 0,0 km/h (0 Bft) NO 45 11,4 C 0,0 km/h (0 Bft)
04.07.2015 05:10 14,7 C 14,6 C 81 % 1025,6 hPa 0,0 mm 0,0 km/h (0 Bft) O-NO 67 11,5 C 0,0 km/h (0 Bft)
04.07.2015 05:15 14,6 C 14,5 C 81 % 1025,4 hPa 0,0 mm 0,0 km/h (0 Bft) SO 135 11,4 C 0,0 km/h (0 Bft)
04.07.2015 05:20 14,5 C 14,4 C 81 % 1025,4 hPa 0,0 mm 0,0 km/h (0 Bft) NO 45 11,3 C 0,0 km/h (0 Bft)
04.07.2015 05:25 14,3 C 14,3 C 81 % 1025,4 hPa 0,0 mm 0,0 km/h (0 Bft) NO 45 11,1 C 0,0 km/h (0 Bft)
04.07.2015 05:30 14,5 C 14,3 C 82 % 1025,4 hPa 0,0 mm 0,0 km/h (0 Bft) S-SO 157 11,5 C 0,0 km/h (0 Bft)
04.07.2015 05:35 14,4 C 14,3 C 82 % 1025,6 hPa 0,0 mm 0,0 km/h (0 Bft) SO 135 11,4 C 0,0 km/h (0 Bft)
04.07.2015 05:40 14,3 C 14,2 C 82 % 1025,6 hPa 0,0 mm 0,0 km/h (0 Bft) O-SO 112 11,3 C 0,0 km/h (0 Bft)
04.07.2015 05:45 14,4 C 14,3 C 82 % 1025,6 hPa 0,0 mm 0,0 km/h (0 Bft) O-NO 67 11,4 C 0,0 km/h (0 Bft)
04.07.2015 05:50 14,3 C 14,3 C 82 % 1025,6 hPa 0,0 mm 0,0 km/h (0 Bft) O-NO 67 11,3 C 0,0 km/h (0 Bft)
04.07.2015 05:55 14,6 C 14,5 C 83 % 1025,7 hPa 0,0 mm 0,0 km/h (0 Bft) O-NO 67 11,7 C 0,0 km/h (0 Bft)
04.07.2015 06:00 14,7 C 14,7 C 83 % 1025,7 hPa 0,0 mm 0,0 km/h (0 Bft) O-NO 67 11,8 C 0,0 km/h (0 Bft)
04.07.2015 06:05 14,7 C 14,8 C 83 % 1025,7 hPa 0,0 mm 0,0 km/h (0 Bft) SO 135 11,8 C 0,0 km/h (0 Bft)
04.07.2015 06:10 15,1 C 15,8 C 82 % 1025,7 hPa 0,0 mm 0,0 km/h (0 Bft) S-SO 157 12,0 C 0,0 km/h (0 Bft)
04.07.2015 06:15 15,2 C 16,5 C 79 % 1025,7 hPa 0,0 mm 0,0 km/h (0 Bft) S-SO 157 11,6 C 0,0 km/h (0 Bft)
04.07.2015 06:20 15,6 C 17,5 C 79 % 1025,7 hPa 0,0 mm 0,0 km/h (0 Bft) SO 135 12,0 C 0,0 km/h (0 Bft)
04.07.2015 06:25 15,8 C 18,1 C 79 % 1025,7 hPa 0,0 mm 0,0 km/h (0 Bft) SO 135 12,2 C 0,0 km/h (0 Bft)
04.07.2015 06:30 16,0 C 19,1 C 78 % 1025,7 hPa 0,0 mm 0,0 km/h (0 Bft) S-SO 157 12,2 C 0,0 km/h (0 Bft)
04.07.2015 06:35 16,3 C 19,7 C 78 % 1025,6 hPa 0,0 mm 0,0 km/h (0 Bft) S-SO 157 12,5 C 0,0 km/h (0 Bft)
04.07.2015 06:40 16,8 C 20,6 C 77 % 1025,6 hPa 0,0 mm 0,0 km/h (0 Bft) S-SO 157 12,7 C 0,0 km/h (0 Bft)
04.07.2015 06:45 17,2 C 21,2 C 76 % 1025,6 hPa 0,0 mm 0,0 km/h (0 Bft) W-SW 247 12,9 C 0,0 km/h (0 Bft)
04.07.2015 06:50 17,7 C 21,9 C 76 % 1025,6 hPa 0,0 mm 0,0 km/h (0 Bft) N-NW 337 13,4 C 0,0 km/h (0 Bft)
04.07.2015 06:55 18,1 C 22,6 C 75 % 1025,6 hPa 0,0 mm 0,0 km/h (0 Bft) N-NW 337 13,6 C 0,0 km/h (0 Bft)
04.07.2015 07:00 18,8 C 23,8 C 74 % 1025,6 hPa 0,0 mm 0,0 km/h (0 Bft) N-NW 337 14,1 C 0,0 km/h (0 Bft)
04.07.2015 07:05 19,1 C 24,6 C 73 % 1025,6 hPa 0,0 mm 0,0 km/h (0 Bft) N-NW 337 14,1 C 0,0 km/h (0 Bft)
04.07.2015 07:10 19,5 C 25,9 C 72 % 1025,6 hPa 0,0 mm 0,0 km/h (0 Bft) N-NW 337 14,3 C 0,0 km/h (0 Bft)
04.07.2015 07:15 19,7 C 26,4 C 72 % 1025,9 hPa 0,0 mm 0,0 km/h (0 Bft) N-NW 337 14,5 C 0,0 km/h (0 Bft)
04.07.2015 07:17 19,7 C 26,4 C 72 % 1025,9 hPa 0,0 mm 0,0 km/h (0 Bft) N-NW 337 14,5 C 0,0 km/h (0 Bft)
04.07.2015 07:20 20,1 C 26,9 C 71 % 1025,9 hPa 0,0 mm 0,0 km/h (0 Bft) N-NW 337 14,7 C 0,0 km/h (0 Bft)
04.07.2015 07:25 20,4 C 27,0 C 70 % 1025,9 hPa 0,0 mm 0,0 km/h (0 Bft) O-NO 67 14,7 C 0,0 km/h (0 Bft)
04.07.2015 07:30 20,8 C 27,5 C 70 % 1025,9 hPa 0,0 mm 0,0 km/h (0 Bft) N-NO 22 15,1 C 0,0 km/h (0 Bft)
04.07.2015 07:35 21,2 C 27,9 C 69 % 1025,8 hPa 0,0 mm 0,3 km/h (0 Bft) S-SW 202 15,3 C 2,6 km/h (1 Bft)
04.07.2015 07:40 21,7 C 28,5 C 69 % 1025,8 hPa 0,0 mm 0,3 km/h (0 Bft) N-NW 337 15,8 C 0,0 km/h (0 Bft)
04.07.2015 07:45 22,2 C 29,1 C 68 % 1025,8 hPa 0,0 mm 0,3 km/h (0 Bft) SO 135 16,0 C 0,0 km/h (0 Bft)
04.07.2015 07:50 22,8 C 30,1 C 67 % 1025,8 hPa 0,0 mm 0,0 km/h (0 Bft) NO 45 16,3 C 0,0 km/h (0 Bft)
04.07.2015 07:55 23,0 C 30,2 C 65 % 1025,9 hPa 0,0 mm 0,5 km/h (0 Bft) W-SW 247 16,1 C 3,6 km/h (1 Bft)
04.07.2015 08:00 23,2 C 30,4 C 64 % 1025,9 hPa 0,0 mm 1,0 km/h (0 Bft) O-SO 112 16,0 C 0,0 km/h (0 Bft)
04.07.2015 08:05 23,6 C 31,1 C 64 % 1025,9 hPa 0,0 mm 0,5 km/h (0 Bft) O-SO 112 16,4 C 0,0 km/h (0 Bft)
04.07.2015 08:10 23,8 C 31,9 C 62 % 1025,9 hPa 0,0 mm 0,0 km/h (0 Bft) O-NO 67 16,1 C 0,0 km/h (0 Bft)
04.07.2015 08:15 23,9 C 32,7 C 63 % 1026,2 hPa 0,0 mm 0,0 km/h (0 Bft) O-NO 67 16,4 C 0,0 km/h (0 Bft)
04.07.2015 08:20 24,1 C 33,1 C 61 % 1026,2 hPa 0,0 mm 0,0 km/h (0 Bft) O-NO 67 16,1 C 0,0 km/h (0 Bft)
04.07.2015 08:25 24,3 C 33,4 C 61 % 1026,2 hPa 0,0 mm 0,0 km/h (0 Bft) O-NO 67 16,3 C 0,0 km/h (0 Bft)
04.07.2015 08:30 24,5 C 33,8 C 60 % 1026,2 hPa 0,0 mm 0,0 km/h (0 Bft) O-NO 67 16,2 C 0,0 km/h (0 Bft)
04.07.2015 08:35 24,7 C 34,0 C 61 % 1026,6 hPa 0,0 mm 0,0 km/h (0 Bft) O-NO 67 16,7 C 0,0 km/h (0 Bft)
04.07.2015 08:40 25,4 C 34,3 C 61 % 1026,6 hPa 0,0 mm 0,3 km/h (0 Bft) N-NO 22 17,3 C 0,0 km/h (0 Bft)
04.07.2015 08:45 25,8 C 34,4 C 60 % 1026,6 hPa 0,0 mm 0,3 km/h (0 Bft) O-NO 67 17,4 C 0,0 km/h (0 Bft)
04.07.2015 08:50 26,4 C 35,0 C 58 % 1026,6 hPa 0,0 mm 0,0 km/h (0 Bft) O-NO 67 17,5 C 0,0 km/h (0 Bft)
04.07.2015 08:55 26,6 C 35,4 C 58 % 1026,7 hPa 0,0 mm 0,0 km/h (0 Bft) N-NW 337 17,6 C 0,0 km/h (0 Bft)
04.07.2015 09:00 26,9 C 36,3 C 57 % 1026,7 hPa 0,0 mm 0,0 km/h (0 Bft) O-SO 112 17,6 C 0,0 km/h (0 Bft)
04.07.2015 09:05 26,9 C 36,6 C 56 % 1026,7 hPa 0,0 mm 0,0 km/h (0 Bft) O-NO 67 17,4 C 0,0 km/h (0 Bft)
04.07.2015 09:10 26,9 C 36,3 C 56 % 1026,7 hPa 0,0 mm 0,0 km/h (0 Bft) O-SO 112 17,4 C 0,0 km/h (0 Bft)
04.07.2015 09:15 27,0 C 36,6 C 56 % 1026,6 hPa 0,0 mm 0,0 km/h (0 Bft) N-NO 22 17,5 C 0,0 km/h (0 Bft)
04.07.2015 09:20 27,5 C 36,7 C 56 % 1026,6 hPa 0,0 mm 0,0 km/h (0 Bft) O-SO 112 17,9 C 0,0 km/h (0 Bft)
04.07.2015 09:25 27,6 C 36,5 C 55 % 1026,6 hPa 0,0 mm 0,0 km/h (0 Bft) O-SO 112 17,7 C 0,0 km/h (0 Bft)
04.07.2015 09:30 28,2 C 36,7 C 55 % 1026,6 hPa 0,0 mm 0,0 km/h (0 Bft) NW 315 18,3 C 0,0 km/h (0 Bft)
04.07.2015 09:35 28,6 C 37,0 C 53 % 1026,9 hPa 0,0 mm 0,5 km/h (0 Bft) N-NO 22 18,1 C 3,6 km/h (1 Bft)
04.07.2015 09:40 28,6 C 36,6 C 53 % 1026,9 hPa 0,0 mm 1,0 km/h (0 Bft) O-NO 67 18,1 C 7,3 km/h (2 Bft)
04.07.2015 09:45 28,6 C 37,2 C 53 % 1026,9 hPa 0,0 mm 0,8 km/h (0 Bft) NO 45 18,1 C 0,0 km/h (0 Bft)
04.07.2015 09:50 29,2 C 37,4 C 53 % 1026,9 hPa 0,0 mm 0,8 km/h (0 Bft) W-NW 292 18,6 C 2,6 km/h (1 Bft)
04.07.2015 09:55 29,3 C 37,2 C 52 % 1027,1 hPa 0,0 mm 1,3 km/h (1 Bft) N-NW 337 18,4 C 3,4 km/h (1 Bft)
04.07.2015 10:00 29,7 C 37,2 C 50 % 1027,1 hPa 0,0 mm 1,6 km/h (1 Bft) NW 315 18,1 C 3,9 km/h (1 Bft)
04.07.2015 10:05 29,7 C 37,2 C 53 % 1027,1 hPa 0,0 mm 1,3 km/h (1 Bft) N-NW 337 19,1 C 0,0 km/h (0 Bft)
04.07.2015 10:10 30,0 C 37,3 C 51 % 1027,1 hPa 0,0 mm 2,1 km/h (1 Bft) W-NW 292 18,7 C 7,8 km/h (2 Bft)
04.07.2015 10:15 30,0 C 36,9 C 49 % 1027,6 hPa 0,0 mm 3,6 km/h (1 Bft) W 270 18,1 C 7,5 km/h (2 Bft)
04.07.2015 10:20 30,0 C 36,7 C 50 % 1027,6 hPa 0,0 mm 3,4 km/h (1 Bft) N-NW 337 18,4 C 10,1 km/h (2 Bft)
04.07.2015 10:25 30,1 C 36,5 C 50 % 1027,6 hPa 0,0 mm 3,4 km/h (1 Bft) N-NO 22 18,5 C 5,4 km/h (1 Bft)
04.07.2015 10:30 30,4 C 36,2 C 49 % 1027,6 hPa 0,0 mm 4,4 km/h (1 Bft) NW 315 18,5 C 7,5 km/h (2 Bft)
04.07.2015 10:35 30,3 C 35,9 C 49 % 1027,4 hPa 0,0 mm 4,7 km/h (1 Bft) N-NW 337 18,4 C 5,2 km/h (1 Bft)
04.07.2015 10:40 30,5 C 36,1 C 49 % 1027,4 hPa 0,0 mm 3,6 km/h (1 Bft) N-NW 337 18,6 C 0,0 km/h (0 Bft)
04.07.2015 10:45 30,6 C 36,2 C 48 % 1027,4 hPa 0,0 mm 3,4 km/h (1 Bft) NO 45 18,3 C 6,0 km/h (2 Bft)
04.07.2015 10:50 30,7 C 36,1 C 48 % 1027,4 hPa 0,0 mm 4,4 km/h (1 Bft) NW 315 18,4 C 5,4 km/h (1 Bft)
04.07.2015 10:55 30,3 C 36,0 C 47 % 1027,9 hPa 0,0 mm 4,9 km/h (1 Bft) W 270 17,7 C 5,7 km/h (1 Bft)
04.07.2015 11:00 30,1 C 36,4 C 47 % 1027,9 hPa 0,0 mm 4,4 km/h (1 Bft) W-NW 292 17,5 C 13,7 km/h (3 Bft)
04.07.2015 11:05 30,4 C 36,4 C 47 % 1027,9 hPa 0,0 mm 4,9 km/h (1 Bft) N-NW 337 17,8 C 9,6 km/h (2 Bft)
04.07.2015 11:10 30,1 C 35,2 C 46 % 1027,9 hPa 0,0 mm 8,3 km/h (2 Bft) W 270 17,2 C 17,6 km/h (3 Bft)
04.07.2015 11:15 30,0 C 34,8 C 46 % 1028,0 hPa 0,0 mm 9,3 km/h (2 Bft) W-NW 292 17,1 C 14,2 km/h (3 Bft)
04.07.2015 11:20 29,6 C 34,5 C 46 % 1028,0 hPa 0,0 mm 7,8 km/h (2 Bft) W 270 16,7 C 9,3 km/h (2 Bft)
04.07.2015 11:25 29,7 C 34,3 C 47 % 1028,0 hPa 0,0 mm 7,8 km/h (2 Bft) N-NW 337 17,2 C 8,5 km/h (2 Bft)
04.07.2015 11:30 29,6 C 33,9 C 47 % 1028,0 hPa 0,0 mm 9,6 km/h (2 Bft) W 270 17,1 C 18,9 km/h (3 Bft)
04.07.2015 11:35 29,6 C 34,0 C 48 % 1028,1 hPa 0,0 mm 9,6 km/h (2 Bft) NW 315 17,4 C 14,5 km/h (3 Bft)
04.07.2015 11:40 29,8 C 33,7 C 49 % 1028,1 hPa 0,0 mm 9,8 km/h (2 Bft) N-NW 337 17,9 C 21,8 km/h (4 Bft)
04.07.2015 11:45 30,0 C 33,6 C 49 % 1028,1 hPa 0,0 mm 10,9 km/h (2 Bft) W 270 18,1 C 13,5 km/h (3 Bft)
04.07.2015 11:50 30,0 C 33,7 C 48 % 1028,1 hPa 0,0 mm 10,1 km/h (2 Bft) W 270 17,8 C 12,2 km/h (2 Bft)
04.07.2015 11:55 30,1 C 33,9 C 48 % 1028,0 hPa 0,0 mm 8,8 km/h (2 Bft) W-NW 292 17,9 C 7,0 km/h (2 Bft)
04.07.2015 12:00 30,3 C 34,7 C 47 % 1028,0 hPa 0,0 mm 5,7 km/h (1 Bft) W 270 17,7 C 2,8 km/h (1 Bft)
04.07.2015 12:05 30,4 C 34,7 C 46 % 1028,0 hPa 0,0 mm 6,2 km/h (2 Bft) W-NW 292 17,5 C 9,3 km/h (2 Bft)
04.07.2015 12:10 30,5 C 34,5 C 45 % 1028,0 hPa 0,0 mm 8,5 km/h (2 Bft) N-NW 337 17,2 C 10,9 km/h (2 Bft)
04.07.2015 12:15 30,6 C 34,5 C 45 % 1028,0 hPa 0,0 mm 9,1 km/h (2 Bft) S-SW 202 17,3 C 13,7 km/h (3 Bft)
04.07.2015 12:20 30,8 C 34,6 C 45 % 1028,0 hPa 0,0 mm 8,3 km/h (2 Bft) W-SW 247 17,5 C 6,5 km/h (2 Bft)
04.07.2015 12:25 30,8 C 34,8 C 45 % 1028,0 hPa 0,0 mm 7,5 km/h (2 Bft) NW 315 17,5 C 6,5 km/h (2 Bft)
04.07.2015 12:30 31,1 C 34,9 C 45 % 1028,0 hPa 0,0 mm 7,5 km/h (2 Bft) NW 315 17,7 C 11,1 km/h (2 Bft)
04.07.2015 12:35 31,2 C 35,1 C 46 % 1027,8 hPa 0,0 mm 7,5 km/h (2 Bft) NW 315 18,2 C 15,5 km/h (3 Bft)
04.07.2015 12:40 31,1 C 35,0 C 45 % 1027,8 hPa 0,0 mm 7,5 km/h (2 Bft) NW 315 17,7 C 12,7 km/h (3 Bft)
04.07.2015 12:45 31,1 C 35,1 C 45 % 1027,8 hPa 0,0 mm 8,5 km/h (2 Bft) N-NW 337 17,7 C 11,4 km/h (2 Bft)
04.07.2015 12:50 31,4 C 35,1 C 45 % 1027,8 hPa 0,0 mm 7,3 km/h (2 Bft) W-SW 247 18,0 C 7,8 km/h (2 Bft)
04.07.2015 12:55 31,6 C 35,3 C 45 % 1027,7 hPa 0,0 mm 7,5 km/h (2 Bft) NW 315 18,2 C 17,9 km/h (3 Bft)
04.07.2015 13:00 31,4 C 35,1 C 45 % 1027,7 hPa 0,0 mm 8,8 km/h (2 Bft) NW 315 18,0 C 10,1 km/h (2 Bft)
04.07.2015 13:05 31,5 C 35,2 C 45 % 1027,7 hPa 0,0 mm 8,3 km/h (2 Bft) W-NW 292 18,1 C 6,0 km/h (2 Bft)
04.07.2015 13:10 31,7 C 35,2 C 46 % 1027,7 hPa 0,0 mm 7,0 km/h (2 Bft) W 270 18,6 C 8,0 km/h (2 Bft)
04.07.2015 13:15 31,8 C 35,0 C 45 % 1027,7 hPa 0,0 mm 8,3 km/h (2 Bft) NW 315 18,4 C 12,7 km/h (3 Bft)
04.07.2015 13:18 31,8 C 35,0 C 45 % 1027,7 hPa 0,0 mm 8,3 km/h (2 Bft) NW 315 18,4 C 12,7 km/h (3 Bft)
04.07.2015 13:20 32,0 C 34,3 C 45 % 1027,7 hPa 0,0 mm 7,3 km/h (2 Bft) NW 315 18,5 C 11,1 km/h (2 Bft)
04.07.2015 13:25 31,9 C 33,9 C 45 % 1027,7 hPa 0,0 mm 7,8 km/h (2 Bft) W-NW 292 18,5 C 3,4 km/h (1 Bft)
04.07.2015 13:30 32,0 C 33,9 C 45 % 1027,7 hPa 0,0 mm 9,3 km/h (2 Bft) W-NW 292 18,5 C 9,3 km/h (2 Bft)
04.07.2015 13:35 31,9 C 33,9 C 45 % 1027,4 hPa 0,0 mm 8,3 km/h (2 Bft) W 270 18,5 C 6,5 km/h (2 Bft)
04.07.2015 13:40 32,1 C 34,9 C 45 % 1027,4 hPa 0,0 mm 7,0 km/h (2 Bft) W-SW 247 18,6 C 8,8 km/h (2 Bft)
04.07.2015 13:45 32,0 C 35,4 C 45 % 1027,4 hPa 0,0 mm 6,0 km/h (2 Bft) S 180 18,5 C 9,1 km/h (2 Bft)
04.07.2015 13:50 32,1 C 35,8 C 44 % 1027,4 hPa 0,0 mm 6,5 km/h (2 Bft) W 270 18,3 C 9,6 km/h (2 Bft)
04.07.2015 13:55 32,4 C 35,9 C 45 % 1027,2 hPa 0,0 mm 6,2 km/h (2 Bft) O-NO 67 18,9 C 3,1 km/h (1 Bft)
04.07.2015 14:00 32,7 C 36,5 C 44 % 1027,2 hPa 0,0 mm 5,2 km/h (1 Bft) W-NW 292 18,8 C 8,5 km/h (2 Bft)
04.07.2015 14:05 32,4 C 36,3 C 44 % 1027,2 hPa 0,0 mm 6,2 km/h (2 Bft) W-SW 247 18,5 C 14,8 km/h (3 Bft)
04.07.2015 14:10 32,2 C 35,8 C 43 % 1027,2 hPa 0,0 mm 9,8 km/h (2 Bft) W-NW 292 18,0 C 22,0 km/h (4 Bft)
04.07.2015 14:15 32,3 C 35,7 C 45 % 1026,9 hPa 0,0 mm 9,6 km/h (2 Bft) W-NW 292 18,8 C 14,0 km/h (3 Bft)
04.07.2015 14:20 32,3 C 35,7 C 43 % 1026,9 hPa 0,0 mm 8,8 km/h (2 Bft) S-SW 202 18,1 C 8,5 km/h (2 Bft)
04.07.2015 14:25 31,9 C 35,3 C 43 % 1026,9 hPa 0,0 mm 9,8 km/h (2 Bft) S-SO 157 17,7 C 7,0 km/h (2 Bft)
04.07.2015 14:30 32,0 C 35,8 C 43 % 1026,9 hPa 0,0 mm 6,7 km/h (2 Bft) N 360 17,8 C 25,4 km/h (4 Bft)
04.07.2015 14:35 31,9 C 35,7 C 42 % 1026,7 hPa 0,0 mm 6,5 km/h (2 Bft) S 180 17,4 C 4,9 km/h (1 Bft)
04.07.2015 14:40 32,2 C 35,7 C 43 % 1026,7 hPa 0,0 mm 8,8 km/h (2 Bft) W-NW 292 18,0 C 15,3 km/h (3 Bft)
04.07.2015 14:45 32,1 C 35,6 C 43 % 1026,7 hPa 0,0 mm 8,8 km/h (2 Bft) W 270 17,9 C 14,8 km/h (3 Bft)
04.07.2015 14:50 32,1 C 35,4 C 43 % 1026,7 hPa 0,0 mm 10,1 km/h (2 Bft) W-NW 292 17,9 C 17,3 km/h (3 Bft)
04.07.2015 14:55 32,1 C 35,2 C 42 % 1026,6 hPa 0,0 mm 10,9 km/h (2 Bft) NW 315 17,5 C 18,6 km/h (3 Bft)
04.07.2015 15:00 32,2 C 34,9 C 41 % 1026,6 hPa 0,0 mm 12,7 km/h (3 Bft) W-NW 292 17,2 C 23,0 km/h (4 Bft)
04.07.2015 15:05 32,2 C 34,8 C 41 % 1026,6 hPa 0,0 mm 13,7 km/h (3 Bft) NW 315 17,2 C 15,0 km/h (3 Bft)
04.07.2015 15:10 32,3 C 35,2 C 41 % 1026,6 hPa 0,0 mm 10,6 km/h (2 Bft) N-NW 337 17,3 C 7,5 km/h (2 Bft)
04.07.2015 15:15 32,3 C 35,4 C 41 % 1026,4 hPa 0,0 mm 9,3 km/h (2 Bft) N 360 17,3 C 19,7 km/h (3 Bft)
04.07.2015 15:20 32,3 C 35,5 C 39 % 1026,4 hPa 0,0 mm 9,6 km/h (2 Bft) S 180 16,5 C 7,8 km/h (2 Bft)
04.07.2015 15:25 32,3 C 35,7 C 39 % 1026,4 hPa 0,0 mm 8,3 km/h (2 Bft) W-NW 292 16,5 C 3,1 km/h (1 Bft)
04.07.2015 15:30 32,4 C 35,8 C 39 % 1026,4 hPa 0,0 mm 9,1 km/h (2 Bft) NW 315 16,6 C 25,6 km/h (4 Bft)
04.07.2015 15:35 32,4 C 35,9 C 38 % 1026,2 hPa 0,0 mm 8,3 km/h (2 Bft) NW 315 16,2 C 0,0 km/h (0 Bft)
04.07.2015 15:40 32,5 C 36,2 C 39 % 1026,2 hPa 0,0 mm 7,3 km/h (2 Bft) W-NW 292 16,7 C 13,2 km/h (3 Bft)
04.07.2015 15:45 32,4 C 36,0 C 37 % 1026,2 hPa 0,0 mm 8,5 km/h (2 Bft) S 180 15,8 C 15,3 km/h (3 Bft)
04.07.2015 15:50 32,2 C 35,7 C 37 % 1026,2 hPa 0,0 mm 9,8 km/h (2 Bft) W 270 15,6 C 13,5 km/h (3 Bft)
04.07.2015 15:55 32,3 C 35,8 C 38 % 1026,3 hPa 0,0 mm 7,8 km/h (2 Bft) O-NO 67 16,1 C 0,0 km/h (0 Bft)
04.07.2015 16:00 32,3 C 36,4 C 37 % 1026,3 hPa 0,0 mm 5,2 km/h (1 Bft) S 180 15,7 C 3,1 km/h (1 Bft)
04.07.2015 16:05 32,4 C 36,8 C 37 % 1026,3 hPa 0,0 mm 3,6 km/h (1 Bft) NW 315 15,8 C 8,3 km/h (2 Bft)
04.07.2015 16:10 32,0 C 36,8 C 37 % 1026,3 hPa 0,0 mm 6,0 km/h (2 Bft) W-SW 247 15,5 C 7,8 km/h (2 Bft)
04.07.2015 16:15 31,7 C 36,6 C 37 % 1026,0 hPa 0,0 mm 7,8 km/h (2 Bft) N-NW 337 15,2 C 12,4 km/h (3 Bft)
04.07.2015 16:20 31,5 C 36,2 C 37 % 1026,0 hPa 0,0 mm 8,3 km/h (2 Bft) N-NO 22 15,0 C 6,7 km/h (2 Bft)
04.07.2015 16:25 31,5 C 36,2 C 38 % 1026,0 hPa 0,0 mm 9,3 km/h (2 Bft) NW 315 15,4 C 13,5 km/h (3 Bft)
04.07.2015 16:30 31,3 C 36,0 C 38 % 1026,0 hPa 0,0 mm 8,3 km/h (2 Bft) W-SW 247 15,3 C 5,4 km/h (1 Bft)
04.07.2015 16:35 31,2 C 36,1 C 37 % 1026,0 hPa 0,0 mm 9,1 km/h (2 Bft) W-NW 292 14,8 C 14,2 km/h (3 Bft)
04.07.2015 16:40 31,1 C 36,4 C 37 % 1026,0 hPa 0,0 mm 7,0 km/h (2 Bft) W-NW 292 14,7 C 7,8 km/h (2 Bft)
04.07.2015 16:45 31,1 C 36,4 C 37 % 1026,0 hPa 0,0 mm 5,7 km/h (1 Bft) W 270 14,7 C 5,7 km/h (1 Bft)
04.07.2015 16:50 31,0 C 36,7 C 37 % 1026,0 hPa 0,0 mm 5,4 km/h (1 Bft) W-NW 292 14,6 C 4,4 km/h (1 Bft)
04.07.2015 16:55 31,1 C 37,1 C 37 % 1025,8 hPa 0,0 mm 5,2 km/h (1 Bft) W 270 14,7 C 15,8 km/h (3 Bft)
04.07.2015 17:00 31,0 C 36,6 C 37 % 1025,8 hPa 0,0 mm 4,9 km/h (1 Bft) SW 225 14,6 C 0,0 km/h (0 Bft)
04.07.2015 17:05 31,0 C 36,5 C 38 % 1025,8 hPa 0,0 mm 5,4 km/h (1 Bft) N-NW 337 15,0 C 6,2 km/h (2 Bft)
04.07.2015 17:10 31,0 C 35,5 C 37 % 1025,8 hPa 0,0 mm 4,7 km/h (1 Bft) NW 315 14,6 C 6,5 km/h (2 Bft)
04.07.2015 17:15 31,0 C 34,5 C 38 % 1025,7 hPa 0,0 mm 4,1 km/h (1 Bft) NW 315 15,0 C 6,5 km/h (2 Bft)
04.07.2015 17:20 31,0 C 33,8 C 38 % 1025,7 hPa 0,0 mm 2,3 km/h (1 Bft) S-SO 157 15,0 C 0,0 km/h (0 Bft)
04.07.2015 17:25 31,0 C 33,5 C 38 % 1025,7 hPa 0,0 mm 2,8 km/h (1 Bft) NW 315 15,0 C 3,4 km/h (1 Bft)
04.07.2015 17:30 31,0 C 33,0 C 38 % 1025,7 hPa 0,0 mm 5,2 km/h (1 Bft) N-NW 337 15,0 C 10,9 km/h (2 Bft)
04.07.2015 17:35 30,9 C 32,7 C 38 % 1025,6 hPa 0,0 mm 7,3 km/h (2 Bft) N-NW 337 14,9 C 10,9 km/h (2 Bft)
04.07.2015 17:40 30,7 C 32,3 C 38 % 1025,6 hPa 0,7 mm 8,0 km/h (2 Bft) W 270 14,7 C 14,2 km/h (3 Bft)
04.07.2015 17:45 30,7 C 32,2 C 37 % 1025,6 hPa 0,0 mm 7,5 km/h (2 Bft) W 270 14,3 C 4,1 km/h (1 Bft)
04.07.2015 17:50 30,7 C 32,2 C 37 % 1025,6 hPa 0,7 mm 5,7 km/h (1 Bft) W 270 14,3 C 8,5 km/h (2 Bft)
04.07.2015 17:55 30,6 C 32,2 C 36 % 1025,5 hPa 0,0 mm 4,7 km/h (1 Bft) NW 315 13,8 C 4,7 km/h (1 Bft)
04.07.2015 18:00 30,6 C 32,2 C 36 % 1025,5 hPa 0,0 mm 4,1 km/h (1 Bft) N-NW 337 13,8 C 3,9 km/h (1 Bft)
04.07.2015 18:05 30,7 C 32,2 C 36 % 1025,5 hPa 0,0 mm 5,2 km/h (1 Bft) N-NO 22 13,9 C 7,3 km/h (2 Bft)
04.07.2015 18:10 30,7 C 32,2 C 36 % 1025,5 hPa 0,0 mm 5,2 km/h (1 Bft) W-NW 292 13,9 C 6,0 km/h (2 Bft)
04.07.2015 18:15 30,7 C 32,2 C 38 % 1025,3 hPa 0,0 mm 3,9 km/h (1 Bft) W-NW 292 14,7 C 7,0 km/h (2 Bft)
04.07.2015 18:20 30,6 C 32,1 C 38 % 1025,3 hPa 0,0 mm 5,4 km/h (1 Bft) NW 315 14,6 C 4,4 km/h (1 Bft)
04.07.2015 18:25 30,5 C 32,0 C 38 % 1025,3 hPa 0,0 mm 6,0 km/h (2 Bft) W 270 14,5 C 8,8 km/h (2 Bft)
04.07.2015 18:30 30,5 C 31,9 C 38 % 1025,3 hPa 0,0 mm 6,2 km/h (2 Bft) NW 315 14,5 C 9,8 km/h (2 Bft)
04.07.2015 18:35 30,6 C 32,4 C 37 % 1025,4 hPa 0,0 mm 6,2 km/h (2 Bft) N-NW 337 14,2 C 11,1 km/h (2 Bft)
04.07.2015 18:40 30,5 C 33,9 C 38 % 1025,4 hPa 0,0 mm 5,4 km/h (1 Bft) N-NW 337 14,5 C 7,8 km/h (2 Bft)
04.07.2015 18:45 30,5 C 34,4 C 38 % 1025,4 hPa 0,0 mm 5,4 km/h (1 Bft) N-NW 337 14,5 C 7,3 km/h (2 Bft)
04.07.2015 18:50 30,5 C 34,8 C 38 % 1025,4 hPa 0,0 mm 5,2 km/h (1 Bft) W 270 14,5 C 4,7 km/h (1 Bft)
04.07.2015 18:55 30,5 C 35,0 C 38 % 1025,4 hPa 0,0 mm 4,9 km/h (1 Bft) N-NW 337 14,5 C 7,5 km/h (2 Bft)
04.07.2015 19:00 30,2 C 34,8 C 39 % 1025,4 hPa 0,0 mm 4,1 km/h (1 Bft) W-SW 247 14,7 C 5,2 km/h (1 Bft)
04.07.2015 19:05 29,8 C 33,9 C 39 % 1025,4 hPa 0,0 mm 2,6 km/h (1 Bft) W 270 14,3 C 3,6 km/h (1 Bft)
04.07.2015 19:10 29,1 C 32,7 C 40 % 1025,4 hPa 0,0 mm 1,0 km/h (0 Bft) W 270 14,1 C 0,0 km/h (0 Bft)
04.07.2015 19:15 28,7 C 31,9 C 40 % 1025,3 hPa 0,0 mm 0,8 km/h (0 Bft) W-SW 247 13,7 C 0,0 km/h (0 Bft)
04.07.2015 19:18 28,3 C 31,0 C 40 % 1025,3 hPa 0,0 mm 0,5 km/h (0 Bft) W 270 13,4 C 3,4 km/h (1 Bft)
04.07.2015 19:19 28,3 C 31,0 C 40 % 1025,3 hPa 0,0 mm 0,5 km/h (0 Bft) W 270 13,4 C 3,4 km/h (1 Bft)
04.07.2015 19:20 28,3 C 31,0 C 40 % 1025,3 hPa 0,0 mm 0,5 km/h (0 Bft) W 270 13,4 C 3,4 km/h (1 Bft)
04.07.2015 19:25 28,1 C 30,6 C 40 % 1025,3 hPa 0,0 mm 1,0 km/h (0 Bft) W 270 13,2 C 0,0 km/h (0 Bft)
04.07.2015 19:30 27,8 C 29,8 C 40 % 1025,3 hPa 0,0 mm 0,8 km/h (0 Bft) W-SW 247 12,9 C 0,0 km/h (0 Bft)
04.07.2015 19:35 27,7 C 29,6 C 41 % 1025,2 hPa 0,0 mm 0,0 km/h (0 Bft) S 180 13,2 C 0,0 km/h (0 Bft)
04.07.2015 19:40 27,5 C 29,3 C 46 % 1025,2 hPa 0,0 mm 0,3 km/h (0 Bft) S 180 14,8 C 0,0 km/h (0 Bft)
04.07.2015 19:45 27,3 C 29,2 C 47 % 1025,2 hPa 0,0 mm 0,5 km/h (0 Bft) S-SO 157 15,0 C 2,6 km/h (1 Bft)
04.07.2015 19:50 27,0 C 29,1 C 48 % 1025,2 hPa 0,0 mm 1,8 km/h (1 Bft) S-SO 157 15,0 C 0,0 km/h (0 Bft)
04.07.2015 19:55 26,5 C 29,1 C 50 % 1025,3 hPa 0,0 mm 2,3 km/h (1 Bft) S-SO 157 15,2 C 3,6 km/h (1 Bft)
04.07.2015 20:00 26,2 C 28,8 C 51 % 1025,3 hPa 0,0 mm 2,6 km/h (1 Bft) SO 135 15,2 C 4,9 km/h (1 Bft)
04.07.2015 20:05 25,8 C 28,6 C 56 % 1025,3 hPa 0,0 mm 2,3 km/h (1 Bft) S-SO 157 16,3 C 3,1 km/h (1 Bft)
04.07.2015 20:10 25,3 C 28,3 C 56 % 1025,3 hPa 0,0 mm 1,6 km/h (1 Bft) S-SO 157 15,9 C 3,6 km/h (1 Bft)
04.07.2015 20:15 25,5 C 28,2 C 56 % 1025,0 hPa 0,0 mm 1,3 km/h (1 Bft) S-SO 157 16,1 C 0,0 km/h (0 Bft)
04.07.2015 20:20 25,1 C 27,8 C 56 % 1025,0 hPa 0,0 mm 1,0 km/h (0 Bft) SO 135 15,7 C 0,0 km/h (0 Bft)
04.07.2015 20:25 24,9 C 27,6 C 57 % 1025,0 hPa 0,0 mm 0,3 km/h (0 Bft) O-SO 112 15,8 C 0,0 km/h (0 Bft)
04.07.2015 20:30 24,8 C 27,5 C 57 % 1025,0 hPa 0,0 mm 0,0 km/h (0 Bft) SO 135 15,7 C 0,0 km/h (0 Bft)
04.07.2015 20:35 24,8 C 27,4 C 57 % 1025,2 hPa 0,0 mm 0,0 km/h (0 Bft) O-SO 112 15,7 C 0,0 km/h (0 Bft)
04.07.2015 20:40 24,6 C 27,1 C 57 % 1025,2 hPa 0,0 mm 0,5 km/h (0 Bft) SO 135 15,5 C 0,0 km/h (0 Bft)
04.07.2015 20:45 24,2 C 26,9 C 58 % 1025,2 hPa 0,0 mm 0,5 km/h (0 Bft) O 90 15,4 C 3,4 km/h (1 Bft)
04.07.2015 20:50 23,9 C 26,5 C 59 % 1025,2 hPa 0,0 mm 0,3 km/h (0 Bft) O-SO 112 15,4 C 0,0 km/h (0 Bft)
04.07.2015 20:55 24,0 C 26,1 C 58 % 1025,1 hPa 0,0 mm 0,3 km/h (0 Bft) SO 135 15,2 C 0,0 km/h (0 Bft)
04.07.2015 21:00 23,8 C 25,5 C 59 % 1025,1 hPa 0,0 mm 0,0 km/h (0 Bft) O-SO 112 15,3 C 0,0 km/h (0 Bft)
04.07.2015 21:05 23,6 C 25,0 C 59 % 1025,1 hPa 0,0 mm 0,0 km/h (0 Bft) O 90 15,1 C 0,0 km/h (0 Bft)
04.07.2015 21:10 23,3 C 24,3 C 59 % 1025,1 hPa 0,0 mm 0,0 km/h (0 Bft) O-SO 112 14,8 C 2,6 km/h (1 Bft)
04.07.2015 21:15 23,2 C 24,1 C 59 % 1025,1 hPa 0,0 mm 1,3 km/h (1 Bft) S 180 14,7 C 8,0 km/h (2 Bft)
04.07.2015 21:20 23,6 C 24,4 C 59 % 1025,1 hPa 0,0 mm 3,9 km/h (1 Bft) S 180 15,1 C 4,7 km/h (1 Bft)
04.07.2015 21:25 23,6 C 24,4 C 59 % 1025,1 hPa 0,0 mm 4,4 km/h (1 Bft) S 180 15,1 C 4,9 km/h (1 Bft)
04.07.2015 21:30 23,2 C 24,1 C 60 % 1025,1 hPa 0,0 mm 3,6 km/h (1 Bft) S 180 15,0 C 3,9 km/h (1 Bft)
04.07.2015 21:35 22,5 C 23,9 C 63 % 1025,2 hPa 0,0 mm 2,8 km/h (1 Bft) S-SO 157 15,1 C 2,8 km/h (1 Bft)
04.07.2015 21:40 22,5 C 23,4 C 64 % 1025,2 hPa 0,0 mm 1,0 km/h (0 Bft) S-SO 157 15,3 C 3,1 km/h (1 Bft)
04.07.2015 21:45 22,6 C 23,2 C 64 % 1025,2 hPa 0,0 mm 0,3 km/h (0 Bft) S-SO 157 15,4 C 0,0 km/h (0 Bft)
04.07.2015 21:50 22,5 C 22,8 C 64 % 1025,2 hPa 0,0 mm 0,0 km/h (0 Bft) S-SO 157 15,3 C 0,0 km/h (0 Bft)
04.07.2015 21:55 22,3 C 22,7 C 63 % 1025,2 hPa 0,0 mm 0,0 km/h (0 Bft) S 180 14,9 C 3,6 km/h (1 Bft)
04.07.2015 22:00 22,4 C 22,6 C 63 % 1025,2 hPa 0,0 mm 1,3 km/h (1 Bft) S-SW 202 15,0 C 8,0 km/h (2 Bft)
04.07.2015 22:05 22,3 C 22,6 C 63 % 1025,2 hPa 0,0 mm 2,1 km/h (1 Bft) SO 135 14,9 C 0,0 km/h (0 Bft)
04.07.2015 22:10 22,3 C 22,5 C 62 % 1025,2 hPa 0,0 mm 2,6 km/h (1 Bft) S-SO 157 14,7 C 0,0 km/h (0 Bft)
04.07.2015 22:15 22,2 C 22,4 C 62 % 1025,1 hPa 0,0 mm 1,8 km/h (1 Bft) SO 135 14,6 C 0,0 km/h (0 Bft)
04.07.2015 22:20 22,3 C 22,3 C 61 % 1025,1 hPa 0,0 mm 0,8 km/h (0 Bft) O-SO 112 14,4 C 0,0 km/h (0 Bft)
04.07.2015 22:25 22,1 C 22,1 C 61 % 1025,1 hPa 0,0 mm 0,3 km/h (0 Bft) S-SO 157 14,2 C 0,0 km/h (0 Bft)
04.07.2015 22:30 21,8 C 21,8 C 62 % 1025,1 hPa 0,0 mm 0,0 km/h (0 Bft) S-SO 157 14,2 C 0,0 km/h (0 Bft)
04.07.2015 22:35 21,8 C 21,7 C 63 % 1025,1 hPa 0,0 mm 0,3 km/h (0 Bft) S-SO 157 14,4 C 2,8 km/h (1 Bft)
04.07.2015 22:40 21,6 C 21,5 C 63 % 1025,1 hPa 0,0 mm 0,5 km/h (0 Bft) SO 135 14,2 C 0,0 km/h (0 Bft)
04.07.2015 22:45 21,5 C 21,4 C 63 % 1025,1 hPa 0,0 mm 0,5 km/h (0 Bft) S 180 14,2 C 0,0 km/h (0 Bft)
04.07.2015 22:50 21,0 C 21,0 C 63 % 1025,1 hPa 0,0 mm 0,0 km/h (0 Bft) SW 225 13,7 C 0,0 km/h (0 Bft)
04.07.2015 22:55 20,9 C 20,8 C 64 % 1025,1 hPa 0,0 mm 0,0 km/h (0 Bft) SO 135 13,8 C 0,0 km/h (0 Bft)
04.07.2015 23:00 21,1 C 20,9 C 64 % 1025,1 hPa 0,0 mm 0,0 km/h (0 Bft) SO 135 14,0 C 0,0 km/h (0 Bft)
04.07.2015 23:05 20,8 C 20,7 C 64 % 1025,1 hPa 0,0 mm 0,0 km/h (0 Bft) S 180 13,7 C 0,0 km/h (0 Bft)
04.07.2015 23:10 20,9 C 20,7 C 65 % 1025,1 hPa 0,0 mm 0,0 km/h (0 Bft) S-SW 202 14,1 C 0,0 km/h (0 Bft)
04.07.2015 23:15 20,8 C 20,6 C 64 % 1025,0 hPa 0,0 mm 0,0 km/h (0 Bft) S 180 13,7 C 0,0 km/h (0 Bft)
04.07.2015 23:20 20,7 C 20,5 C 65 % 1025,0 hPa 0,0 mm 0,3 km/h (0 Bft) SO 135 13,9 C 0,0 km/h (0 Bft)
04.07.2015 23:25 20,5 C 20,3 C 65 % 1025,0 hPa 0,0 mm 0,5 km/h (0 Bft) W-NW 292 13,7 C 0,0 km/h (0 Bft)
04.07.2015 23:30 20,2 C 20,1 C 65 % 1025,0 hPa 0,0 mm 0,3 km/h (0 Bft) N-NW 337 13,4 C 0,0 km/h (0 Bft)
04.07.2015 23:35 20,0 C 19,9 C 65 % 1025,1 hPa 0,0 mm 0,0 km/h (0 Bft) N-NW 337 13,2 C 0,0 km/h (0 Bft)
04.07.2015 23:40 19,9 C 19,7 C 66 % 1025,1 hPa 0,0 mm 0,3 km/h (0 Bft) S-SW 202 13,4 C 0,0 km/h (0 Bft)
04.07.2015 23:45 19,8 C 19,7 C 66 % 1025,1 hPa 0,0 mm 0,5 km/h (0 Bft) SW 225 13,3 C 7,8 km/h (2 Bft)
04.07.2015 23:50 19,8 C 19,7 C 66 % 1025,1 hPa 0,0 mm 0,3 km/h (0 Bft) W-NW 292 13,3 C 0,0 km/h (0 Bft)
04.07.2015 23:55 19,9 C 19,7 C 67 % 1024,9 hPa 0,0 mm 0,3 km/h (0 Bft) O-SO 112 13,6 C 0,0 km/h (0 Bft)
_ Min-Zeit 05:50 05:40 18:10 23:55 - 23:35 - - 04:45 23:55
Minimum _ 14,3 C 14,2 C 36 % 1024,9 hPa - 0,0 km/h (0 Bft) - - 10,9 C 0,0 km/h (0 Bft)
_ Max-Zeit 14:00 09:50 06:05 11:50 17:50 15:05 - - 10:05 15:30
Maximum _ 32,7 C 37,4 C 83 % 1028,1 hPa 0,7 mm 13,7 km/h
NW (3 Bft)
- - 19,1 C 25,6 km/h
NW (4 Bft)
Durchschnitt _ 24,3 C 27,0 C 58 % 1026,2 hPa #1,4 mm 2,8 km/h (1 Bft) NW - 14,9 C 4,0 km/h (1 Bft)